{"data":{"norad_id":68550,"intl_designator":"2026-070J","name":"STARLINK-36304","alt_names":[],"object_type":"PAYLOAD","status":"ACTIVE","operator":null,"country":"US","launch_date":"2026-04-02","launch_site_code":"AFETR","launch_vehicle":null,"mission":null,"orbit_class":"UNKNOWN","rcs_meters":null,"size_class":null,"mass_kg":null,"dimensions":null,"purposes":["comms"],"wikipedia_slug":null,"has_3d_model":false,"image_url":null,"decayed_at":null,"tle_current":{"epoch":"2026-05-25T00:00:02.000160Z","epoch_age_seconds":75124,"freshness":"FRESH","line1":"1 68550U 26070J   26145.00002315  .00055725  00000+0  16497-2 0  9990","line2":"2 68550  53.1600   7.7296 0001060  66.8447 303.1286 15.34372252  5983","mean_motion":15.34372252,"eccentricity":0.000106,"inclination_deg":53.16,"raan_deg":7.7296,"arg_perigee_deg":66.8447,"mean_anomaly_deg":303.1286,"bstar":0.0016497,"rev_number":598,"period_min":93.849455249403,"perigee_km":462.06057654589,"apogee_km":463.51085216133,"semimajor_km":6840.9227143536,"source":"CELESTRAK","updated_at":"2026-05-25T13:38:21.961121Z"}}}